TimeMST,TemperatureF,Dew PointF,Humidity,Sea Level PressureIn,VisibilityMPH,Wind Direction,Wind SpeedMPH,Gust SpeedMPH,PrecipitationIn,Events,Conditions,WindDirDegrees,DateUTC
12:53 AM,8.1,3.0,80,30.56,10.0,East,8.1,-,N/A,,Clear,80,2013-01-06 07:53:00
2:53 AM,7.0,1.9,80,30.54,10.0,East,9.2,-,N/A,,Clear,90,2013-01-06 09:53:00
3:53 AM,6.1,1.0,80,30.53,10.0,ESE,10.4,-,N/A,,Clear,110,2013-01-06 10:53:00
5:53 AM,5.0,1.0,84,30.55,10.0,ESE,8.1,-,N/A,,Clear,110,2013-01-06 12:53:00
6:53 AM,5.0,-0.0,80,30.58,10.0,ESE,8.1,-,N/A,,Clear,110,2013-01-06 13:53:00
7:53 AM,5.0,-0.0,80,30.59,10.0,ESE,8.1,-,N/A,,Clear,110,2013-01-06 14:53:00
8:53 AM,8.1,1.9,76,30.58,10.0,East,8.1,-,N/A,,Clear,100,2013-01-06 15:53:00
9:53 AM,15.1,6.1,68,30.55,10.0,ESE,8.1,-,N/A,,Clear,110,2013-01-06 16:53:00
10:53 AM,23.0,10.0,58,30.47,10.0,SE,6.9,-,N/A,,Clear,140,2013-01-06 17:53:00
11:53 AM,28.0,10.0,47,30.40,10.0,East,3.5,-,N/A,,Clear,100,2013-01-06 18:53:00
12:53 PM,32.0,10.0,40,30.34,10.0,ESE,8.1,-,N/A,,Clear,120,2013-01-06 19:53:00
1:53 PM,37.0,12.0,36,30.28,10.0,SE,5.8,-,N/A,,Clear,130,2013-01-06 20:53:00
2:53 PM,39.0,10.9,32,30.25,10.0,East,6.9,-,N/A,,Clear,100,2013-01-06 21:53:00
3:53 PM,37.9,12.0,35,30.25,10.0,East,3.5,-,N/A,,Clear,100,2013-01-06 22:53:00
4:53 PM,37.0,10.9,34,30.24,10.0,Calm,Calm,-,N/A,,Clear,0,2013-01-06 23:53:00
5:53 PM,33.1,14.0,46,30.25,10.0,SE,3.5,-,N/A,,Clear,130,2013-01-07 00:53:00
6:53 PM,28.9,15.1,56,30.26,10.0,Calm,Calm,-,N/A,,Clear,0,2013-01-07 01:53:00
7:53 PM,27.0,16.0,63,30.27,10.0,Calm,Calm,-,N/A,,Mostly Cloudy,0,2013-01-07 02:53:00
8:53 PM,26.1,16.0,66,30.25,10.0,East,3.5,-,N/A,,Clear,90,2013-01-07 03:53:00
9:53 PM,26.1,15.1,63,30.21,10.0,East,8.1,-,N/A,,Clear,100,2013-01-07 04:53:00
10:53 PM,25.0,15.1,66,30.18,10.0,East,3.5,-,N/A,,Clear,80,2013-01-07 05:53:00
11:53 PM,25.0,14.0,63,30.14,10.0,East,9.2,-,N/A,,Clear,100,2013-01-07 06:53:00